Orbital Elements at Epoch 2459200.5 (2020-Dec-17.0) TDB
Reference: JPL 22 (heliocentric ecliptic J2000)
Element | Value | Uncertainty (1-sigma) | Units |
e | .1859929153133069 | 4.1909e-08 | |
a | 2.281790350160678 | 7.662e-09 | au |
q | 1.857393510800522 | 9.5058e-08 | au |
i | 5.084164265711721 | 4.7505e-06 | deg |
node | 29.42630098595683 | 4.3515e-05 | deg |
peri | 355.5769603541401 | 4.4985e-05 | deg |
M | 39.65118928692354 | 1.2475e-05 | deg |
tp | 2459061.835352244182 (2020-Jul-31.33535224) | 4.3211e-05 | TDB |
period | 1258.960300808866 3.45 | 6.3412e-06 1.736e-08 | d yr |
n | .2859502398675355 | 1.4403e-09 | deg/d |
Q | 2.706187189520834 | 9.0871e-09 | au |
|
| | Orbit Determination Parameters
Additional Information
|